This is the latest recevied weather packets stored in our database for station/object N4UUJ-1. If no packets are shown the sender has not sent any weather packets the latest 10 day(s).
| Time | Temp. | Humidity | Pressure | Rain* | Wind** | Luminosity | Snow |
|---|---|---|---|---|---|---|---|
| 1788578765 | 22.22° C | 75% | 1019.3 hPa | 0 mm | - | - | - |
| 1788576964 | 22.78° C | 75% | 1019.7 hPa | 0 mm | - | - | - |
| 1788575163 | 23.33° C | 75% | 1019.7 hPa | 0 mm | - | - | - |
| 1788573362 | 23.89° C | 75% | 1019.7 hPa | 0 mm | - | - | - |
| 1788571561 | 23.89° C | 75% | 1019.4 hPa | 0 mm | - | - | - |
| 1788569760 | 24.44° C | 75% | 1019.4 hPa | 0 mm | - | - | - |
| 1788567959 | 24.44° C | 75% | 1019.1 hPa | 0 mm | - | - | - |
| 1788566158 | 26.67° C | 75% | 1018.8 hPa | 0 mm | - | - | - |
| 1788564357 | 26.67° C | 75% | 1018.8 hPa | 0 mm | - | - | - |
| 1788562556 | 26.67° C | 75% | 1018.7 hPa | 0 mm | - | - | - |
| 1788560755 | 26.67° C | 75% | 1018.8 hPa | 0 mm | - | - | - |
| 1788558954 | 26.67° C | 75% | 1018.8 hPa | 0 mm | - | - | - |
| 1788557153 | 27.22° C | 75% | 1018.9 hPa | 0 mm | - | - | - |
| 1788555352 | 27.22° C | 75% | 1019.4 hPa | 0 mm | - | - | - |
| 1788553551 | 24.44° C | 75% | 1019.9 hPa | 0 mm | - | - | - |
| 1788551750 | 24.44° C | 75% | 1019.9 hPa | 1.02 mm | - | - | - |
| 1788549949 | 24.44° C | 75% | 1020.4 hPa | 1.02 mm | - | - | - |
| 1788548148 | 28.33° C | 75% | 1020.6 hPa | 0 mm | - | - | - |
| 1788546347 | 33.33° C | 75% | 1020.6 hPa | 0 mm | - | - | - |
| 1788544546 | 32.22° C | 75% | 1020.8 hPa | 0 mm | - | - | - |
| 1788542745 | 31.11° C | 75% | 1021.2 hPa | 0 mm | - | - | - |
| 1788540944 | 30.56° C | 75% | 1021.4 hPa | 0 mm | - | - | - |
| 1788539143 | 32.22° C | 75% | 1021.5 hPa | 0 mm | - | - | - |
| 1788537342 | 31.67° C | 75% | 1021.7 hPa | 0 mm | - | - | - |
| 1788535541 | 31.11° C | 75% | 1021.7 hPa | 0 mm | - | - | - |
* Rain latest hour (hover to see other rain measurements)
** Current wind speed in m/s (hover to see current wind gust speed)